This is the latest recevied weather packets stored in our database for station/object AA7VG. If no packets are shown the sender has not sent any weather packets the latest 10 day(s).
| Time | Temp. | Humidity | Pressure | Rain* | Wind** | Luminosity | Snow |
|---|---|---|---|---|---|---|---|
| 1777306167 | 0° C | 78% | 1013.8 hPa | 0 mm | - | - | - |
| 1777305862 | 0.56° C | 76% | 1013.8 hPa | 0 mm | - | - | - |
| 1777305560 | 0.56° C | 73% | 1013.6 hPa | 0 mm | - | - | - |
| 1777305255 | 0.56° C | 70% | 1013.5 hPa | 0 mm | - | - | - |
| 1777304954 | 0.56° C | 71% | 1013.8 hPa | 0 mm | - | - | - |
| 1777304652 | 0.56° C | 69% | 1013.8 hPa | 0 mm | - | - | - |
| 1777304349 | 0.56° C | 70% | 1013.8 hPa | 0 mm | - | - | - |
| 1777304046 | 0° C | 72% | 1013.7 hPa | 0 mm | - | - | - |
| 1777303742 | 0° C | 70% | 1013.6 hPa | 0 mm | - | - | - |
| 1777303440 | 0° C | 72% | 1013.5 hPa | 0 mm | - | - | - |
| 1777303137 | -0.56° C | 73% | 1013.6 hPa | 0 mm | - | - | - |
| 1777302836 | -0.56° C | 70% | 1013.9 hPa | 0 mm | - | - | - |
| 1777302532 | -0.56° C | 70% | 1013.7 hPa | 0 mm | - | - | - |
| 1777302230 | 0° C | 70% | 1013.5 hPa | 0 mm | - | - | - |
| 1777301927 | 0° C | 69% | 1013.7 hPa | 0 mm | - | - | - |
| 1777301625 | 0° C | 69% | 1013.7 hPa | 0 mm | - | - | - |
| 1777301322 | 0° C | 70% | 1013.5 hPa | 0 mm | - | - | - |
| 1777301018 | 0° C | 70% | 1013.4 hPa | 0 mm | - | - | - |
| 1777300716 | 0° C | 71% | 1013.3 hPa | 0 mm | - | - | - |
| 1777300414 | -0.56° C | 72% | 1013.5 hPa | 0 mm | - | - | - |
| 1777300111 | -0.56° C | 72% | 1013.3 hPa | 0 mm | - | - | - |
| 1777299807 | -0.56° C | 71% | 1013.3 hPa | 0 mm | - | - | - |
| 1777299505 | -0.56° C | 71% | 1013.5 hPa | 0 mm | - | - | - |
| 1777299202 | -0.56° C | 71% | 1013.4 hPa | 0 mm | - | - | - |
| 1777298899 | -0.56° C | 72% | 1013.3 hPa | 0 mm | - | - | - |
* Rain latest hour (hover to see other rain measurements)
** Current wind speed in m/s (hover to see current wind gust speed)